Starlink 3391

operational
NORAD ID: 51117 Int'l Des: 2022-005 Owner: SPXS Country: US Constellation: starlink
LEOCIRCULAR

About Starlink 3391

Description loading...

Live Position

Loading 3D Globe...

Upcoming Passes

Altitude History

Altitude vs Time

uPlot chart will show altitude changes over time

Two-Line Element Set

1 51117U 22005P 26036.13099842 -.00000148 00000-0 88114-5 0 9998
2 51117 53.2161 75.1688 0001335 87.1245 272.9900 15.08838253223963
Epoch: Feb 5, 2026 • Age: 12 hours

Current Status

Altitude 540.2 km
Velocity 7.59 km/s
Sub-Earth Point 3.33°N, 111.03°W
Launch Date Jan 19, 2022
Age 4 years
Type internet

Technical Details

Classification Payload
Mass 297.00 kg
Dry Mass 275.00 kg
Total Mass 297.00 kg
Length 0.20 m
Diameter 2.80 m
Span 9.00 m
Shape Box + pan
Manufacturer SPXS
Bus Type Starlink
Phase Status In Orbit
Owner/State SPXS/US

Large Constellations

Loading constellations...